Погода в Трудовом

Россия / Оренбургская область     51°43′28″N   52°43′39″E
темп.,
°C
ветер,
м/с
пор.,
м/с
влажн.,
%
обл.,
%
осадки,
мм/ч
давл.,
гПа
погр.,
м
26 февраля, пт
пт2623:00−19ююв5998100 0.7 1028409
02:00−17ююв61196100 1.4 1025601
05:00−15ююв61096100 2.7 1022608
08:00−14ююв61195100 1.0 1020545
11:00−13ююв61094100 1.7 1019535
14:00−11юв5892100 0.4 1019593
17:00−11юв5892100 0.6 1018540
20:00−13вюв499695 0.1 1017216
27 февраля, сб
сб2723:00−12юв599596 0.1 1015268
02:00−10юв71195100 0.6 1010335
05:00−7ююв71395100 3.5 1006478
08:00−3ююв5997100 4.5 1002302
11:00+1з49100100 4.9 1002272
14:00+1зюз410100100 0.1 1002380
17:00+1зюз48100100 0.1 1003408
20:000юз4798100 0.1 1003255
28 февраля, вс
вс2823:000юз5998100 0.3 1003445
02:000юз5998100 0.3 1002499
05:00−1юз5898100 0.6 1002411
08:00−2юз489797 0.4 1001232
11:00−1юз599795 0.9 1002490
14:000юз58100100 0.9 1003516
17:00−4з5794100 1.8 1004363
20:00−10зюз479598 0.1 1006174
1 марта, пн
пн123:00−11з359694 0.1 1009106
02:00−12зсз359591 0.1 1010127
05:00−13зсз369593 0.3 1012165
08:00−14сз359587 0.1 1014111
11:00−13ссз469391 0.1 1016255
14:00−12сз359283 0.0 1018290
17:00−13сз359281 0.0 1019308
20:00−17сз349375 0.0 102157
2 марта, вт
вт223:00−19сз339666 0.0 102338
02:00−20сз23964 0.0 102320
05:00−21зсз23962 0.0 102323
08:00−23зсз23975 0.0 102320
11:00−19зюз23954 0.0 1023116
14:00−17юз459433 0.0 1022257
17:00−14ююз599461 0.0 1019379
20:00−13ююз51194100 0.0 1017415